Temp
17 17 17 16 15 15 14 13 13 12 11 12 12 12 11 11 12 12 12 10 11 10 10 10 10 9 9 10 9 8 9 9 9 9 8 8 8 9 9 10 10 10 9
17 17 17 16 16 16 15 14 13 12 12 11 12 12 12 11 11 11 11 10 10 11 11 10 10 10 9 9 9 9 9 9 9 9 8 7 7 9 9 9 9 9 8
15 16 15 15 16 16 15 15 14 13 12 12 11 11 11 11 11 10 10 11 11 11 11 11 10 10 10 9 9 9 9 9 9 9 10 7 8 8 9 9 9 9 9
12 13 14 14 13 14 15 15 14 13 12 12 11 11 11 12 11 12 10 11 11 11 11 11 11 10 10 10 9 9 9 10 10 8 10 11 11 8 7 8 9 8 8
8 10 11 11 12 13 13 14 13 13 12 12 12 11 10 11 11 11 11 11 11 11 10 10 10 10 10 10 10 9 9 9 10 10 9 10 10 11 10 7 7 7 7
5 6 8 10 11 13 12 13 13 12 11 11 11 11 11 11 10 10 10 10 10 10 10 10 10 10 10 10 10 10 10 10 10 10 10 10 10 10 10 10 8 7 7
3 4 6 6 7 8 9 11 11 11 11 10 11 11 11 10 10 10 10 10 10 9 10 10 9 10 10 10 10 10 10 10 10 10 10 10 10 11 11 10 9 7 7
1 1 2 4 5 7 9 9 10 10 10 10 10 10 10 10 10 10 10 10 10 10 9 10 10 10 10 10 10 10 10 10 9 9 9 9 9 9 10 10 10 7 7
-2 -1 1 2 3 5 7 9 9 10 9 10 10 10 10 10 10 10 10 10 10 9 9 9 9 9 10 10 10 10 10 10 10 9 9 9 9 9 9 9 10 10 9
-3 -2 -1 0 2 3 5 7 9 9 9 9 9 9 9 9 9 10 9 9 9 9 9 9 9 8 9 9 9 10 10 10 9 9 9 9 9 9 8 8 9 9 9
-4 -4 -3 -1 0 1 3 5 7 8 8 9 9 8 9 9 8 9 9 8 9 9 8 9 9 7 9 9 9 9 9 9 9 9 9 9 9 8 8 8 8 8 8
-6 -5 -4 -2 -1 0 1 2 4 5 8 8 8 7 9 8 9 9 8 8 8 7 7 6 7 7 8 8 8 9 9 9 9 9 9 9 8 8 8 8 8 8 7
-7 -6 -5 -4 -3 -1 0 1 2 4 5 7 8 8 7 8 8 7 7 8 8 7 6 6 6 7 7 8 8 9 9 9 9 9 9 9 8 8 8 8 8 7 7
-8 -8 -6 -6 -4 -3 -1 -1 1 3 4 6 6 7 7 7 7 8 8 7 7 8 7 6 6 7 6 7 7 8 8 8 8 8 8 8 8 8 8 8 8 7 6
-9 -9 -8 -7 -5 -3 -2 -2 -1 1 2 4 6 6 6 6 7 7 7 7 7 6 6 6 7 7 6 6 6 7 7 7 7 7 8 8 7 7 7 7 7 7 6
-9 -9 -9 -8 -7 -5 -4 -3 -2 -1 -0 2 2 3 5 6 6 7 6 6 7 7 7 7 6 6 6 6 6 6 7 6 6 6 6 6 6 6 6 6 6 5 6
-10 -9 -9 -9 -8 -6 -5 -4 -3 -2 -0 0 -0 2 4 5 5 6 6 6 6 7 6 6 6 6 6 6 7 7 7 7 7 7 7 7 7 6 4 5 4 4 4
-10 -10 -9 -9 -8 -7 -6 -6 -4 -2 -1 -1 -0 1 1 2 3 4 5 5 6 6 6 6 6 6 6 6 7 7 7 7 6 6 7 6 6 5 5 5 5 4 4
-11 -10 -10 -10 -9 -8 -7 -6 -5 -4 -3 -2 -2 -0 0 1 2 3 4 4 4 5 5 5 6 6 6 6 6 6 6 6 6 6 6 6 6 6 5 5 5 4 4
-11 -11 -11 -10 -9 -9 -8 -7 -6 -5 -4 -4 -4 -3 -2 -0 0 0 2 2 3 3 4 4 4 5 5 5 5 5 5 6 6 6 6 6 6 5 5 6 5 4 3
-12 -11 -11 -11 -10 -10 -9 -8 -7 -7 -6 -5 -4 -4 -3 -2 -1 -0 -1 -0 1 2 3 4 4 4 4 4 4 5 4 5 5 5 5 5 5 5 5 4 4 3 3
-12 -11 -11 -11 -10 -10 -9 -9 -8 -8 -7 -6 -5 -4 -3 -3 -2 -1 -1 -2 -1 0 1 2 2 3 3 4 4 4 4 4 4 4 4 4 4 4 4 4 3 2 2
-13 -12 -12 -12 -11 -10 -10 -9 -9 -8 -7 -6 -5 -5 -4 -3 -3 -2 -1 -2 -2 -1 -0 1 2 2 2 3 3 4 4 4 3 3 3 3 3 3 3 2 2 2 1
-13 -13 -12 -11 -11 -11 -10 -10 -9 -8 -7 -6 -6 -5 -5 -5 -4 -3 -2 -2 -2 -3 -2 -1 0 1 1 2 3 3 3 3 3 3 3 2 2 2 1 0 0 1 0
-13 -13 -13 -12 -11 -11 -11 -10 -9 -9 -8 -7 -7 -6 -6 -6 -5 -5 -5 -4 -3 -4 -5 -3 -2 -1 0 0 1 2 2 2 1 2 2 2 2 2 -1 -2 -0 -1 -1
-14 -13 -13 -12 -12 -11 -11 -11 -10 -9 -8 -8 -7 -7 -7 -6 -6 -6 -5 -6 -6 -5 -3 -5 -5 -3 -1 -0 0 1 1 1 0 1 1 1 0 0 -0 -1 -1 -2 -2
Height
1457 1458 1459 1462 1466 1470 1474 1478 1482 1486 1491 1494 1499 1501 1504 1508 1512 1516 1519 1524 1525 1530 1533 1537 1542 1545 1547 1549 1553 1557 1558 1561 1564 1570 1575 1580 1582 1584 1587 1588 1589 1589 1591
1451 1454 1455 1456 1459 1462 1466 1470 1475 1480 1485 1490 1495 1499 1502 1504 1510 1512 1515 1519 1522 1525 1528 1532 1536 1540 1544 1548 1550 1552 1554 1558 1561 1565 1570 1577 1583 1582 1585 1587 1588 1587 1588
1446 1448 1449 1451 1452 1455 1460 1464 1468 1474 1479 1484 1490 1494 1499 1503 1505 1506 1512 1515 1519 1521 1524 1528 1532 1536 1540 1543 1547 1549 1552 1553 1557 1562 1564 1569 1574 1578 1582 1584 1585 1586 1587
1440 1442 1444 1446 1449 1453 1458 1461 1464 1469 1474 1479 1484 1487 1491 1495 1498 1503 1508 1511 1514 1517 1520 1523 1527 1531 1535 1539 1542 1547 1549 1552 1554 1558 1560 1561 1563 1570 1576 1581 1582 1583 1584
1439 1439 1441 1443 1445 1448 1453 1458 1461 1465 1469 1473 1478 1482 1486 1490 1495 1499 1503 1506 1509 1512 1516 1520 1522 1525 1530 1533 1538 1542 1545 1550 1552 1553 1555 1557 1561 1563 1566 1570 1575 1579 1581
1440 1440 1440 1440 1441 1444 1447 1455 1457 1461 1465 1469 1473 1477 1480 1484 1488 1493 1497 1499 1503 1507 1511 1515 1518 1521 1524 1528 1532 1537 1541 1545 1547 1550 1553 1554 1555 1557 1563 1565 1570 1573 1576
1440 1439 1438 1439 1440 1441 1444 1448 1456 1459 1463 1466 1470 1472 1475 1479 1482 1486 1490 1493 1496 1499 1502 1508 1511 1515 1517 1523 1527 1531 1536 1540 1543 1546 1550 1553 1555 1558 1560 1563 1566 1568 1572
1444 1444 1444 1443 1443 1442 1442 1447 1453 1458 1461 1464 1466 1469 1471 1472 1475 1478 1480 1483 1486 1491 1497 1501 1505 1509 1513 1516 1521 1526 1531 1534 1538 1541 1545 1549 1551 1555 1557 1560 1561 1565 1567
1452 1449 1447 1446 1445 1443 1443 1445 1449 1453 1457 1459 1461 1462 1464 1465 1467 1468 1471 1475 1478 1482 1488 1493 1498 1504 1507 1511 1515 1520 1525 1528 1532 1536 1540 1544 1548 1551 1553 1556 1558 1561 1561
1454 1452 1450 1448 1447 1445 1444 1444 1446 1449 1451 1452 1455 1457 1458 1460 1460 1462 1462 1464 1468 1474 1480 1486 1490 1496 1503 1507 1511 1514 1519 1523 1527 1530 1534 1538 1542 1546 1549 1551 1554 1557 1558
1458 1457 1454 1452 1450 1448 1447 1445 1444 1446 1449 1450 1454 1455 1455 1455 1454 1454 1457 1460 1463 1468 1473 1478 1482 1490 1497 1502 1506 1510 1514 1518 1521 1525 1529 1533 1537 1540 1543 1546 1549 1552 1553
1464 1461 1458 1455 1452 1450 1447 1447 1446 1445 1446 1448 1451 1452 1453 1453 1454 1454 1456 1460 1462 1465 1469 1472 1476 1484 1490 1496 1500 1504 1509 1513 1516 1520 1523 1527 1531 1534 1538 1540 1543 1546 1548
1467 1464 1461 1458 1454 1452 1449 1446 1445 1444 1445 1443 1447 1449 1453 1454 1454 1454 1456 1457 1461 1464 1467 1471 1474 1477 1481 1489 1495 1500 1503 1507 1510 1514 1518 1522 1525 1527 1530 1533 1536 1540 1542
1472 1468 1464 1461 1459 1456 1453 1451 1447 1445 1444 1443 1445 1447 1451 1453 1455 1456 1456 1458 1459 1459 1462 1468 1472 1473 1479 1485 1491 1494 1497 1502 1506 1508 1513 1517 1519 1522 1525 1527 1529 1533 1536
1474 1471 1467 1464 1461 1458 1455 1452 1451 1450 1447 1445 1446 1447 1449 1451 1453 1455 1456 1458 1460 1460 1460 1464 1470 1473 1476 1481 1486 1489 1492 1495 1498 1503 1507 1509 1513 1516 1519 1521 1522 1525 1528
1479 1475 1471 1467 1464 1461 1458 1455 1455 1454 1449 1447 1448 1449 1448 1449 1451 1451 1453 1458 1460 1461 1461 1463 1467 1471 1473 1477 1480 1483 1485 1489 1491 1497 1499 1502 1505 1509 1513 1514 1516 1519 1520
1482 1479 1476 1472 1469 1465 1461 1458 1456 1455 1453 1452 1451 1448 1446 1448 1451 1452 1453 1454 1456 1459 1462 1464 1468 1472 1474 1475 1478 1480 1483 1484 1488 1489 1491 1494 1498 1501 1505 1506 1508 1511 1514
1486 1482 1479 1476 1472 1469 1465 1462 1460 1457 1455 1453 1451 1449 1449 1450 1451 1451 1452 1454 1456 1458 1459 1462 1465 1468 1470 1472 1474 1476 1479 1480 1482 1484 1487 1490 1493 1495 1496 1498 1500 1503 1505
1489 1485 1482 1479 1476 1472 1468 1464 1461 1460 1457 1455 1454 1453 1451 1451 1452 1451 1453 1457 1458 1459 1460 1461 1464 1466 1468 1470 1471 1473 1476 1476 1479 1481 1483 1485 1487 1490 1491 1492 1496 1497 1499
1489 1486 1483 1482 1479 1475 1471 1467 1463 1461 1459 1458 1457 1456 1454 1454 1454 1454 1454 1456 1458 1459 1460 1461 1462 1464 1466 1468 1469 1471 1472 1474 1475 1477 1478 1481 1483 1484 1486 1487 1489 1492 1493
1490 1487 1486 1484 1482 1478 1474 1469 1465 1462 1461 1460 1459 1456 1456 1455 1455 1454 1454 1456 1458 1458 1459 1459 1460 1462 1464 1466 1466 1468 1469 1468 1471 1473 1474 1476 1479 1480 1481 1483 1485 1486 1489
1491 1488 1488 1488 1485 1481 1475 1471 1467 1466 1463 1461 1459 1457 1456 1456 1456 1455 1456 1457 1458 1458 1458 1458 1459 1459 1461 1463 1464 1465 1465 1465 1467 1469 1470 1472 1475 1477 1477 1478 1480 1483 1487
1492 1492 1497 1494 1488 1483 1478 1474 1471 1468 1466 1463 1460 1457 1456 1456 1455 1455 1456 1457 1458 1456 1454 1454 1457 1459 1459 1460 1461 1462 1463 1463 1466 1467 1467 1468 1470 1473 1473 1475 1478 1480 1484
1498 1498 1496 1490 1485 1483 1482 1479 1474 1471 1468 1465 1463 1460 1457 1457 1456 1456 1457 1456 1455 1455 1454 1454 1455 1456 1456 1457 1459 1460 1460 1461 1462 1464 1465 1466 1467 1470 1471 1473 1475 1477 1481
1498 1494 1494 1491 1487 1486 1484 1480 1475 1473 1470 1467 1465 1463 1460 1458 1457 1456 1456 1457 1457 1457 1455 1455 1454 1454 1455 1456 1456 1457 1457 1459 1459 1460 1459 1461 1463 1466 1468 1471 1471 1473 1475
1497 1493 1494 1493 1489 1487 1487 1483 1477 1474 1472 1470 1466 1464 1463 1460 1458 1457 1457 1457 1456 1455 1455 1453 1451 1450 1451 1452 1453 1453 1453 1455 1454 1455 1457 1460 1461 1462 1463 1466 1468 1470 1472
Wind_Speed
20 22 27 26 27 28 32 34 33 29 31 34 35 32 30 29 29 26 27 28 26 25 29 30 31 31 34 29 31 30 32 33 31 28 23 17 15 17 16 16 17 17 15
21 17 27 30 32 30 31 33 33 33 32 34 36 35 31 29 30 26 28 29 28 26 28 30 31 31 33 32 34 34 35 33 33 32 28 18 15 20 16 21 19 25 21
9 9 5 25 37 37 35 33 32 33 33 30 35 35 32 32 36 34 32 31 30 27 28 30 31 31 32 35 36 36 36 36 34 31 22 14 11 24 24 19 21 21 19
9 9 7 8 19 37 35 33 30 32 33 32 32 38 37 37 38 33 32 32 30 29 30 31 32 31 32 34 36 36 35 34 33 33 32 18 14 20 19 28 26 24 23
17 11 8 5 7 17 34 35 31 29 32 33 32 31 35 38 38 39 37 35 34 33 30 33 35 33 33 34 35 37 35 34 32 34 36 26 18 21 18 28 32 29 26
19 17 11 6 2 8 24 29 31 26 30 31 31 32 34 35 40 42 40 40 39 38 35 34 37 35 34 35 35 35 33 34 33 32 34 32 27 26 22 19 34 34 33
21 20 16 12 13 9 15 30 29 25 31 31 30 30 32 34 35 37 38 40 44 45 42 37 39 39 36 36 36 35 34 33 33 32 32 30 27 21 21 18 24 31 29
21 19 18 14 13 11 15 20 24 24 23 26 29 33 36 37 38 40 40 41 40 44 45 40 40 39 38 37 38 35 33 31 32 33 33 31 29 24 21 20 17 22 29
24 20 18 17 13 13 9 12 14 18 21 25 30 33 33 33 37 46 41 43 39 45 49 46 43 42 40 40 38 36 34 32 31 32 32 31 30 29 26 23 21 20 20
25 22 19 18 16 15 11 8 13 16 16 15 13 11 14 11 24 31 44 50 45 41 47 46 43 42 42 40 38 36 34 33 32 31 31 32 30 29 30 29 25 22 21
24 21 21 20 19 18 17 15 9 12 15 16 13 10 6 6 6 16 37 44 41 41 43 42 35 40 41 40 38 37 35 33 31 31 31 31 28 28 27 28 26 24 24
20 19 21 21 22 22 21 20 21 17 15 14 13 7 2 2 3 4 19 28 34 36 35 36 36 37 37 39 37 37 35 33 33 32 32 31 30 30 29 29 29 28 27
20 20 21 24 24 22 22 21 20 20 18 19 13 10 5 3 6 13 10 10 11 22 28 30 30 33 28 33 36 35 35 34 33 32 32 32 33 33 33 32 32 30 29
21 20 20 22 22 23 22 23 20 18 18 19 16 14 15 12 13 9 8 11 10 11 21 24 20 21 24 30 34 32 31 31 31 30 31 32 32 32 33 33 32 30 30
24 25 23 22 22 21 21 23 19 15 15 18 16 15 12 11 18 16 10 9 10 12 15 26 25 26 27 28 32 30 30 29 28 29 29 31 30 31 31 32 31 31 31
25 25 25 24 23 21 20 21 20 15 12 13 15 15 18 14 15 22 17 14 15 10 13 13 17 16 19 20 21 21 19 26 25 31 31 31 30 30 30 31 30 30 31
26 25 25 25 22 20 18 18 17 16 12 10 9 12 14 14 14 14 12 17 14 18 16 14 15 17 18 20 18 21 23 23 25 23 26 25 28 31 33 32 32 31 33
25 23 24 25 22 18 16 14 14 14 13 14 14 11 8 9 9 11 13 10 11 12 12 13 14 18 19 17 14 16 17 16 17 19 21 21 20 23 28 27 28 32 34
23 21 22 22 21 19 18 15 13 12 14 16 16 14 11 6 4 6 7 7 7 9 11 11 11 11 11 11 10 12 14 14 14 15 16 17 17 17 20 23 27 29 30
21 21 22 22 20 20 19 18 17 15 15 15 16 16 14 11 8 4 5 3 2 4 6 7 6 8 10 11 13 14 14 15 16 17 17 18 18 19 19 18 21 26 27
20 20 21 22 21 20 19 20 20 20 17 14 13 13 14 12 11 7 3 2 3 8 10 11 9 10 10 12 13 14 13 14 15 16 17 17 19 18 16 15 18 19 20
20 19 19 20 20 20 21 22 22 19 17 14 12 12 12 13 12 8 4 3 1 2 4 8 7 9 10 11 12 11 12 10 11 13 12 13 14 14 14 15 17 18 20
19 17 16 16 18 19 22 22 22 20 17 14 13 12 11 11 11 11 8 3 3 2 2 3 7 8 10 11 11 11 12 11 12 12 12 12 11 12 14 14 18 20 23
18 16 16 17 21 21 19 19 20 19 18 17 14 12 11 10 9 8 8 10 5 4 5 5 8 8 8 10 11 10 11 12 13 13 13 12 11 13 15 15 19 20 25
18 17 17 17 18 19 19 19 19 18 17 16 15 14 14 12 9 9 9 6 7 6 8 7 8 10 10 8 9 10 10 10 10 10 11 12 14 16 17 19 21 21 25
17 17 16 15 16 17 18 18 17 18 17 16 15 15 14 13 12 10 7 5 6 8 10 10 10 11 11 12 11 11 13 12 11 11 11 14 16 17 19 20 21 21 23
Wind_Direction
231 228 220 217 217 218 219 219 222 220 208 210 213 207 205 211 212 211 211 210 214 215 210 211 210 209 209 204 196 188 187 188 193 187 174 165 181 185 193 200 196 176 192
248 248 224 221 217 213 212 215 219 218 217 211 213 217 219 211 215 213 217 217 222 220 216 213 211 209 210 208 202 199 193 196 197 189 185 168 184 187 184 199 197 188 183
233 228 187 223 224 218 211 214 217 216 219 221 209 214 218 223 212 200 214 221 226 225 223 217 216 211 210 208 207 206 205 197 196 200 186 166 194 188 193 191 192 211 213
109 144 151 127 214 223 217 216 220 217 217 220 214 212 214 216 214 229 217 223 226 227 224 219 217 216 213 211 210 211 211 211 200 195 204 194 196 181 191 204 209 211 216
70 75 80 90 159 210 218 219 220 222 219 220 222 219 214 218 224 222 227 236 232 231 225 221 218 215 216 216 214 213 215 217 215 206 204 204 205 203 193 200 203 206 205
60 61 67 70 136 192 200 218 219 222 221 221 225 227 227 226 222 225 226 227 233 228 228 222 221 218 217 218 217 219 220 219 217 218 214 213 207 204 208 208 209 211 211
49 46 55 60 61 113 179 204 208 210 217 223 229 235 240 241 239 237 233 228 232 228 222 222 219 220 218 218 220 221 221 223 220 217 218 220 221 220 217 219 207 207 217
46 46 47 51 53 83 133 173 195 211 214 216 223 229 237 243 245 246 245 238 232 232 229 224 222 221 219 217 220 223 225 225 223 221 219 221 220 221 227 228 216 203 216
44 41 44 50 45 62 106 158 182 212 218 222 222 230 234 237 241 243 244 234 233 231 227 225 219 222 220 218 218 221 224 224 224 222 222 224 223 226 229 235 234 231 216
40 38 41 44 50 62 81 136 196 208 214 205 188 192 215 249 238 234 229 230 226 228 227 225 229 218 222 219 219 221 224 226 225 223 222 224 225 226 229 234 235 235 240
34 35 43 50 55 65 75 87 135 189 198 170 188 186 151 76 243 235 222 220 224 226 226 226 227 220 222 220 220 223 225 226 227 227 226 228 228 228 228 231 236 238 237
32 35 41 47 55 58 67 74 81 91 159 173 164 148 115 196 154 166 226 226 224 222 217 216 216 217 222 221 222 227 229 229 228 228 230 233 233 233 234 236 238 240 240
25 31 42 42 47 51 57 67 70 85 90 145 160 164 183 204 177 146 138 177 216 228 224 221 211 209 219 227 226 229 231 232 233 232 234 234 233 236 238 239 240 241 240
20 22 33 37 43 49 55 54 65 78 84 110 126 161 187 201 178 168 180 195 221 230 219 205 207 205 214 228 230 229 230 233 237 236 238 240 238 239 240 240 242 242 241
19 18 24 28 34 45 51 51 49 64 67 101 121 116 124 188 202 200 189 202 207 191 196 214 207 210 207 217 222 225 227 231 234 238 239 240 242 241 243 243 242 239 240
16 19 24 28 29 36 43 46 42 44 51 81 87 95 108 133 136 185 181 189 193 180 180 167 195 198 215 207 206 212 220 232 235 237 235 236 243 246 244 243 244 246 243
20 24 26 25 25 34 39 40 38 41 48 64 66 83 96 107 111 141 160 179 193 204 203 200 210 214 213 208 210 228 224 221 232 238 251 253 254 249 241 244 241 241 246
19 26 29 25 27 34 43 42 43 42 45 56 53 64 92 96 105 107 126 137 155 175 181 197 205 211 216 217 220 231 237 238 235 233 235 245 250 253 249 247 245 242 246
20 28 32 24 28 35 35 40 48 49 52 52 51 48 51 87 112 122 127 145 144 158 159 163 181 203 212 220 231 230 239 236 240 248 249 252 247 242 241 236 243 242 240
22 25 27 21 26 31 34 37 41 45 48 47 44 40 39 39 52 116 170 180 179 197 204 211 220 228 232 232 240 246 245 245 247 251 255 258 256 247 246 247 240 233 235
19 28 28 24 24 28 35 36 38 37 37 39 40 43 40 37 35 34 70 139 234 228 236 230 237 239 240 244 241 244 255 253 254 256 256 253 250 247 239 241 234 229 228
16 26 23 22 25 28 34 36 35 30 29 29 34 36 34 27 26 30 29 38 313 229 214 215 235 244 240 241 241 239 246 244 254 249 244 243 242 237 235 230 223 217 220
13 20 18 20 27 27 27 30 31 31 26 28 33 27 23 31 17 8 8 14 359 319 293 227 242 243 250 251 251 246 241 237 237 239 238 240 242 240 237 231 226 225 223
17 15 13 20 21 22 22 21 23 27 30 29 32 39 33 28 27 16 342 336 336 328 317 287 254 260 254 251 250 250 245 246 250 249 248 244 240 242 242 233 226 227 225
10 15 10 13 17 13 11 12 16 18 26 29 30 30 33 28 25 21 8 344 309 304 301 277 268 259 249 249 247 246 250 247 245 244 246 244 239 234 220 220 228 223 219
5 11 7 5 9 11 6 6 11 11 12 18 22 27 18 17 13 4 358 360 317 287 281 275 270 248 248 249 253 245 245 238 243 249 244 236 233 233 231 231 228 221 219